STARLINK-31334, 59157

Orbit data source: Space-Track

STARLINK-31334, 59157 is a payload satellite owned by SpaceX/Seattle (US) in LEO that was launched on Mon, 04 Mar 2024 UTC via an FALCON 9 launch vehicle from the Air Force Eastern Test Range (AFETR). Payload-class satellites include a variety of spacecraft equipped with specific instruments for various scientific and technological missions. These include communications satellites like Starlink; space stations such as the ISS; scientific satellites like the Hubble; Earth observation satellites from companies like Planet Labs, Umbra, and HawkEye 360; GPS; miniature CubeSats for education and research; and military/defense satellites.

Loading next visibility...
Identifier
59157, 2024-044F
Orbit
LEO
Country
Flag of USUS
Related business
Manufacturer
SpaceX/Seattle
Mission
Operational Commercial Communications
Bus & Motor
STARLINK V2M, Unknown motor
Mass
730 kg wet, ~700 kg dry
Launch date (UTC)
2024-03-04 (2 years ago)
Launch vehicle
FALCON 9
Launch site
Air Force Eastern Test Range (AFETR)
Object type
Payload
Rocket body
Debris
Shape & HBR
Box + 2 Pan, 14.5 m
Radar Cross Section
33.884 m², Large (>1 m²)

Expand to show TLE details & history
Last TLE update: 10 hours ago

TLE from 10 hours ago
0 STARLINK-31334
1 59157U 24044F   25251.19387102 -.00001397  00000-0 -43586-4 0  9999
2 59157  43.0046  60.3880 0001384 270.3399  89.7294 15.25908430 85627
Epoch: 2025-09-08T04:39Z
TLE epoch observation values (Epoch: 2025-09-08T04:39:10.456Z)
Latitude
0.00003°
Longitude
3.09197°
Altitude
487.831 km
Speed
7.623 km/s
True Right ascension
04h 01m 33s
True Declination
0° 00' 00"
Sunlit
Object was in daylight at epoch
Visualization orbit readout
Latitude
Unknown
Longitude
Unknown
Altitude
Unknown
Speed
Unknown
Apparent Right ascension
Unknown
Apparent Declination
Unknown
Sunlit
N/A
Visualization observer readout
Local Sidereal Time
06:24:18
Azimuth
Unknown
Elevation
Unknown
Doppler factor
Unknown
Orbital elements
Apogee altitude
490.952 km
Perigee altitude
489.051 km
Semi-major axis
6,868.139 km
Eccentricity
0.00014
Inclination
43.0046°
RAAN
60.388°
Arg. of periapsis
270.3399°
True anomaly
89.74526°
Mean anomaly
89.7294°
Eccentric anomaly
89.73733°
Mean motion
3.81316 °/min
Orbital period
94.41 mins
BSTAR
-0.000043586
Loading maneuver chart data...
Computing Atmospheric mass density...
Loading historical data...
Loading historical data...
Loading historical data...
Loading historical data...
Loading historical data...
Loading historical data...
Loading historical data...

Documentation

Showing up to 5 results
|